Location: Unspecified
(0.0000°N, 0.0000°E)
Time: 07:05:27
(UTC+00:00)

N. Korean satellite - Pass Details

Date: 17 October 2019
Orbit: 455 x 508 km, 97.2° (Epoch: 14 October)

Event Time Altitude Azimuth Distance (km) Brightness Sun altitude
Rises 04:42:13 0° 44° (NE) 2,573 10.7 -15.6°
Reaches altitude 10° 04:45:10 10° 71° (ENE) 1,703 10.3 -14.9°
Maximum altitude 04:47:02 14° 102° (ESE) 1,502 10.4 -14.4°
Drops below altitude 10° 04:48:54 10° 132° (SE) 1,716 10.2 -14.0°
Sets 04:51:53 0° 159° (SSE) 2,609 10.7 -13.2°
